コルレヴィッチ彗星

203P/Korlevic (2020)

English version
Home page
Updated on December 9, 2019

---------------------------------------------------------------------

・ プロフィール

・ 写真集

・ 軌道要素

Epoch 2020 Mar. 12.0 TT = JDT 2458920.5
T 2020 Mar. 5.05516 TT                                  MPCW
q   3.1997814            (2000.0)            P               Q
n   0.09762941     Peri.  154.87887     +0.08265406     -0.99539094
a   4.6710616      Node   290.34919     +0.90536015     +0.09539530
e   0.3149777      Incl.    2.97328     +0.41652287     -0.00982899
P  10.10
From 659 observations 1999 Nov. 3-2018 Oct. 13, mean residual 0".7.
     Nongravitational parameters Y1 = -0.08, Y2 = +0.0114.

・ 星図

・ 光度変化

        m1 = 5.5 + 5 logΔ + 20.0 log r(t - 100)

---------------------------------------------------------------------

軌道要素はM.P.E.C. 2018-U70に掲載されたものです。
星図はステラナビゲータ Ver.10 (アストロアーツ) で作成したものです。
光度グラフはComet for Windowsで作成したものです。

---------------------------------------------------------------------

Copyright(C) Seiichi Yoshida (comet@aerith.net). All rights reserved.